Gilead, NE

8:13 PM CST on February 09, 2016 (GMT -0600)
Hebron Municipal

Weather History for KHJH - April, 2012

Change the Weather History Date:

Tuesday, April 3, 2012

  Actual Average Record
Temperature  
Mean Temperature 60 °F -  
Max Temperature 69 °F 59 °F 87 °F (1981)
Min Temperature 50 °F 34 °F 9 °F (1975)
Degree Days  
Heating Degree Days 6    
Growing Degree Days 10 (Base 50)    
Moisture  
Dew Point 47 °F    
Average Humidity 68    
Maximum Humidity 83    
Minimum Humidity 50    
Precipitation  
Precipitation 0.00 in - - ()
Sea Level Pressure  
Sea Level Pressure 29.94 in    
Wind  
Wind Speed 14 mph (NNE)    
Max Wind Speed 20 mph    
Max Gust Speed 26 mph    
Visibility 10 miles    
Events Thunderstorm    
Averages and records for this station are not official NWS values.
T = Trace of Precipitation, MM = Missing Value Source: NWS Daily Summary

Daily Weather History Graph

Daily Weather History Graph

Search for Another Location

Airport or City:

Trip Planner

Search our weather history database for the weather conditions in past years. The results will help you decide how hot, cold, wet, or windy it might be!

Date:

Astronomy

Apr. 03, 2012 Rise Set
Actual Time 7:10 AM CDT 7:57 PM CDT
Civil Twilight 6:42 AM CDT 8:24 PM CDT
Nautical Twilight 6:10 AM CDT 8:57 PM CDT
Astronomical Twilight 5:36 AM CDT 9:31 PM CDT
Moon 4:42 PM CDT (4/3) 4:59 AM CDT (4/3)
Length of Visible Light 13h 42m
Length of Day
12h 47m
Waxing Gibbous, 87% of the Moon is Illuminated
Apr 3
Waxing Gibbous
Apr 6
Full
Apr 13
Last Quarter
Apr 21
New
Apr 29
First Quarter

Hourly Weather History & Observations

Time (CDT) Temp. Dew Point Humidity Pressure Visibility Wind Dir Wind Speed Gust Speed Precip Events Conditions
12:15 AM 54.9 °F 48.7 °F 80% 29.86 in 10.0 mi North 16.1 mph 21.9 mph N/A   Overcast
12:35 AM 54.5 °F 48.6 °F 80% 29.88 in 10.0 mi NNW 12.7 mph 17.3 mph N/A   Overcast
12:55 AM 54.5 °F 48.6 °F 80% 29.88 in 10.0 mi North 15.0 mph 21.9 mph N/A   Overcast
1:15 AM 54.1 °F 48.6 °F 81% 29.89 in 10.0 mi North 17.3 mph 21.9 mph N/A   Overcast
1:35 AM 54.0 °F 48.6 °F 82% 29.90 in 10.0 mi North 17.3 mph 21.9 mph N/A   Overcast
1:55 AM 54.0 °F 48.7 °F 82% 29.90 in 10.0 mi North 12.7 mph 18.4 mph N/A   Overcast
2:15 AM 53.8 °F 48.6 °F 82% 29.90 in 10.0 mi North 16.1 mph 23.0 mph N/A   Overcast
2:55 AM 53.4 °F 48.2 °F 82% 29.91 in 10.0 mi North 12.7 mph 25.3 mph N/A   Overcast
3:15 AM 53.1 °F 48.0 °F 83% 29.90 in 10.0 mi North 16.1 mph 24.2 mph N/A   Overcast
3:35 AM 53.1 °F 48.0 °F 83% 29.91 in 10.0 mi North 13.8 mph 20.7 mph N/A   Overcast
3:55 AM 52.9 °F 47.7 °F 82% 29.91 in 10.0 mi North 16.1 mph 21.9 mph N/A   Overcast
4:35 AM 52.9 °F 46.9 °F 80% 29.92 in 10.0 mi North 12.7 mph 21.9 mph N/A   Overcast
4:55 AM 52.7 °F 46.8 °F 80% 29.92 in 10.0 mi North 17.3 mph 26.5 mph N/A Thunderstorm Overcast
5:15 AM 52.7 °F 46.8 °F 80% 29.93 in 10.0 mi NNE 13.8 mph 24.2 mph N/A   Overcast
5:35 AM 52.7 °F 46.6 °F 80% 29.96 in 10.0 mi North 10.4 mph - N/A   Overcast
5:55 AM 52.5 °F 46.4 °F 80% 29.97 in 10.0 mi North 10.4 mph - N/A   Overcast
6:15 AM 52.3 °F 46.0 °F 79% 29.96 in 10.0 mi North 11.5 mph 18.4 mph N/A   Overcast
6:55 AM 51.8 °F 44.8 °F 77% 29.95 in 10.0 mi North 16.1 mph 19.6 mph N/A   Mostly Cloudy
7:15 AM 50.9 °F 44.6 °F 79% 29.94 in 10.0 mi NNE 11.5 mph 18.4 mph N/A   Scattered Clouds
7:35 AM 50.4 °F 44.6 °F 81% 29.94 in 10.0 mi NNE 13.8 mph 25.3 mph N/A   Clear
7:55 AM 50.0 °F 44.6 °F 82% 29.93 in 10.0 mi NNE 18.4 mph 25.3 mph N/A   Clear
8:15 AM 50.0 °F 44.6 °F 82% 29.93 in 10.0 mi NNE 15.0 mph 23.0 mph N/A   Clear
8:35 AM 50.5 °F 44.6 °F 80% 29.94 in 10.0 mi NNE 12.7 mph 25.3 mph N/A   Scattered Clouds
8:55 AM 51.4 °F 44.6 °F 77% 29.97 in 10.0 mi North 11.5 mph 21.9 mph N/A   Mostly Cloudy
9:15 AM 51.8 °F 44.4 °F 76% 29.96 in 10.0 mi NNE 19.6 mph 24.2 mph N/A   Overcast
9:35 AM 52.5 °F 44.4 °F 74% 29.96 in 10.0 mi NNE 16.1 mph 26.5 mph N/A   Overcast
9:55 AM 53.2 °F 44.8 °F 73% 29.95 in 10.0 mi NNE 18.4 mph 26.5 mph N/A   Overcast
10:15 AM 54.9 °F 45.0 °F 69% 29.96 in 10.0 mi NNE 17.3 mph 21.9 mph N/A   Overcast
10:35 AM 56.1 °F 45.5 °F 68% 29.96 in 10.0 mi NNE 19.6 mph - N/A   Mostly Cloudy
10:55 AM 58.3 °F 45.9 °F 63% 29.97 in 10.0 mi NNE 16.1 mph 23.0 mph N/A   Scattered Clouds
11:15 AM 58.6 °F 46.0 °F 63% 29.99 in 10.0 mi NE 9.2 mph 20.7 mph N/A   Mostly Cloudy
11:35 AM 60.4 °F 46.8 °F 61% 29.99 in 10.0 mi NE 12.7 mph 19.6 mph N/A   Mostly Cloudy
11:55 AM 59.9 °F 46.8 °F 62% 29.99 in 10.0 mi NNE 12.7 mph - N/A   Overcast
12:15 PM 61.0 °F 47.3 °F 61% 29.97 in 10.0 mi NNE 11.5 mph 18.4 mph N/A   Overcast
12:55 PM 62.2 °F 47.8 °F 59% 29.97 in 10.0 mi NNE 11.5 mph 17.3 mph N/A   Overcast
1:15 PM 61.9 °F 47.5 °F 59% 29.97 in 10.0 mi NNE 15.0 mph 19.6 mph N/A   Overcast
1:35 PM 61.5 °F 47.5 °F 60% 29.97 in 10.0 mi North 11.5 mph 17.3 mph N/A   Overcast
1:55 PM 63.5 °F 48.0 °F 57% 29.96 in 10.0 mi NNE 12.7 mph 21.9 mph N/A   Overcast
2:15 PM 64.0 °F 48.0 °F 56% 29.96 in 10.0 mi NNE 15.0 mph - N/A   Overcast
2:35 PM 65.5 °F 49.1 °F 55% 29.96 in 10.0 mi NE 16.1 mph 20.7 mph N/A   Mostly Cloudy
2:55 PM 67.1 °F 49.3 °F 53% 29.94 in 10.0 mi NNE 16.1 mph 21.9 mph N/A   Scattered Clouds
3:15 PM 67.8 °F 49.3 °F 51% 29.93 in 10.0 mi NNE 13.8 mph 21.9 mph N/A   Clear
3:35 PM 68.4 °F 49.3 °F 50% 29.93 in 10.0 mi NE 12.7 mph 21.9 mph N/A   Clear
3:55 PM 68.2 °F 48.7 °F 50% 29.93 in 10.0 mi NE 11.5 mph 19.6 mph N/A   Clear
4:35 PM 69.1 °F 49.6 °F 50% 29.93 in 10.0 mi ENE 12.7 mph 21.9 mph N/A   Clear
4:55 PM 68.4 °F 48.9 °F 50% 29.92 in 10.0 mi NE 13.8 mph - N/A   Clear
5:15 PM 67.8 °F 48.7 °F 50% 29.93 in 10.0 mi NNE 15.0 mph - N/A   Clear
5:35 PM 66.6 °F 48.9 °F 53% 29.94 in 10.0 mi NNE 6.9 mph 17.3 mph N/A   Clear
5:55 PM 65.8 °F 48.6 °F 54% 29.94 in 10.0 mi NNE 10.4 mph - N/A   Mostly Cloudy
6:15 PM 65.7 °F 49.1 °F 55% 29.94 in 10.0 mi NNE 9.2 mph - N/A   Overcast
6:55 PM 64.9 °F 48.4 °F 55% 29.92 in 10.0 mi NNE 12.7 mph - N/A   Mostly Cloudy
7:15 PM 64.4 °F 48.2 °F 56% 29.92 in 10.0 mi NNE 16.1 mph 23.0 mph N/A   Scattered Clouds
7:35 PM 62.8 °F 47.8 °F 58% 29.92 in 10.0 mi NNE 12.7 mph 18.4 mph N/A   Scattered Clouds
8:15 PM 61.0 °F 46.8 °F 59% 29.93 in 10.0 mi NNE 9.2 mph - N/A   Scattered Clouds
8:35 PM 60.8 °F 46.6 °F 59% 29.92 in 10.0 mi North 10.4 mph - N/A   Mostly Cloudy
8:55 PM 59.9 °F 46.4 °F 61% 29.92 in 10.0 mi North 8.1 mph - N/A   Overcast
9:15 PM 59.0 °F 46.0 °F 62% 29.93 in 10.0 mi NNE 11.5 mph - N/A   Mostly Cloudy
9:35 PM 58.1 °F 45.7 °F 63% 29.93 in 10.0 mi North 10.4 mph - N/A   Scattered Clouds
9:55 PM 57.4 °F 45.9 °F 65% 29.94 in 10.0 mi NNE 8.1 mph - N/A   Scattered Clouds
10:15 PM 56.8 °F 45.9 °F 67% 29.94 in 10.0 mi NE 9.2 mph - N/A   Scattered Clouds
10:35 PM 56.5 °F 45.9 °F 68% 29.93 in 10.0 mi NNE 11.5 mph - N/A   Scattered Clouds
10:55 PM 55.8 °F 45.7 °F 69% 29.92 in 10.0 mi NNE 11.5 mph - N/A   Clear
11:15 PM 54.9 °F 45.5 °F 71% 29.92 in 10.0 mi NE 11.5 mph 18.4 mph N/A   Clear
11:55 PM 54.3 °F 45.7 °F 73% 29.92 in 10.0 mi NE 10.4 mph 16.1 mph N/A   Scattered Clouds